www.pogodaiklimat.ru

Погода и климат >> Архив погоды >> Венгрия >> Zalaegerszeg


ПОГОДА в Zalaegerszeg

  • Прогноз погоды в Zalaegerszeg
  • Монитор погоды в Zalaegerszeg
  • Климат города

АРХИВ ПОГОДЫ в Zalaegerszeg

Время (UTC), дата Ветер
(напр.,м/с)
 
Видим.   Явления Облачность Т
(С)
Тd
(С)
f
(%)
Тe
(С)
Тes
(С)
Комфортность P
(гПа)
Po
(гПа)
Тmin
(С)
Tmax
(С)
R
(мм)
R24
(мм)
S
(см)
22 6.12 ЮВ 3 н/о н/о +1.6 -1.1 82 -3 -3 1025.3 995.1
23 6.12 ЮВ 2 н/о н/о +1.6 -1.0 83 -2 -2 1025.6 995.4
00 7.12 Ю 3 н/о н/о +1.1 -1.3 84 -3 -3 1024.8 994.6
01 7.12 Ю 2 н/о н/о +0.9 -1.5 84 -3 -3 1024.5 994.2
02 7.12 Ю 2 н/о н/о +0.9 -1.8 82 -3 -3 1024.3 994.0
03 7.12 Ю 2 н/о н/о +0.9 -1.8 82 -3 -3 1023.7 993.5
04 7.12 Ю 2 н/о н/о +0.9 -2.0 81 -2 -2 1023.1 992.9
05 7.12 Ю 3 н/о н/о +0.9 -1.8 82 -4 -4 1022.6 992.4
06 7.12 Ю 2 н/о н/о +1.1 -1.6 82 -2 -2 1022.4 992.2 +0.7
07 7.12 Ю 3 н/о н/о +1.1 -1.5 83 -3 -3 1021.9 991.7
08 7.12 Ю 2 н/о н/о +1.7 -1.0 82 -2 -2 1021.5 991.4
09 7.12 Ю 3 н/о н/о +3.0 -0.3 79 -1 -1 1020.7 990.8
10 7.12 Ю 3 н/о н/о +5.0 +0.8 74 +2 +2 1019.9 990.2
11 7.12 Ю 3 н/о н/о +6.5 +1.8 72 +4 +4 1018.9 989.4
12 7.12 Ю 4 н/о н/о +7.8 +2.5 69 +5 +5 1017.6 988.3
13 7.12 Ю 3
{7}
н/о н/о +8.8 +3.0 67 +7 +7 1016.7 987.5
14 7.12 ЮВ 4 н/о н/о +8.0 +2.9 70 +5 +5 1016.0 986.7
15 7.12 ЮВ 4 н/о н/о +7.2 +2.5 72 +4 +4 1015.5 986.2
16 7.12 ЮВ 3 н/о н/о +6.0 +2.3 77 +3 +3 1014.6 985.2
17 7.12 ЮВ 4 н/о н/о +5.3 +2.0 79 +1 +1 1013.6 984.1
18 7.12 ЮВ 4 н/о н/о +4.8 +2.0 82 +1 +1 1012.5 983.0 +8.8
21 7.12 ЮВ 4 н/о н/о +4.1 +1.6 84 -0 -0 1009.6 980.1
00 8.12 ЮЗ 4 н/о н/о +8.0 +4.2 77 +5 +5 1007.7 978.7
01 8.12 З 3 н/о н/о +7.9 +5.2 83 +5 +5 1008.5 979.4
02 8.12 С 1 н/о н/о +5.3 +3.8 90 +4 +4 1009.1 979.8
03 8.12 В 2 н/о н/о +5.2 +3.9 91 +3 +3 1009.2 979.8
04 8.12 ЮВ 3 н/о н/о +5.3 +4.4 94 +2 +2 1009.2 979.9
05 8.12 С 2 н/о н/о +5.2 +4.3 94 +2 +2 1010.2 980.8
06 8.12 Ю 2
{10}
н/о н/о +6.1 +3.8 85 +4 +4 1010.3 981.0 +3.8 5
07 8.12 З 1 н/о н/о +6.4 +4.2 86 +5 +5 1011.4 982.1
08 8.12 СЗ 2 н/о н/о +5.8 +4.1 89 +3 +3 1011.2 981.9
09 8.12 СЗ 3 н/о н/о +7.0 +3.8 80 +4 +4 1012.3 983.0
10 8.12 СЗ 2 н/о н/о +6.9 +4.0 82 +5 +5 1012.4 983.1
11 8.12 СЗ 2 н/о н/о +7.1 +3.7 79 +5 +5 1012.9 983.6
12 8.12 С 1 н/о н/о +7.1 +3.5 78 +6 +6 1013.1 983.8
13 8.12 Ю 1 н/о н/о +7.5 +4.1 79 +7 +7 1013.2 984.0
14 8.12 Ю 1 н/о н/о +7.6 +4.2 79 +7 +7 1013.4 984.2
15 8.12 Ю 2 н/о н/о +6.9 +3.7 80 +5 +5 1013.8 984.5
16 8.12 Ю 2 н/о н/о +6.0 +4.0 87 +4 +4 1014.1 984.7
17 8.12 Ю 3 н/о н/о +5.0 +3.3 89 +1 +1 1014.2 984.7
18 8.12 Ю 3 н/о н/о +4.5 +2.7 88 +1 +1 1014.2 984.6 +8.0
19 8.12 ЮЗ 4 н/о н/о +3.8 +2.0 88 -1 -1 1014.1 984.5
20 8.12 ЮЗ 3 н/о н/о +3.6 +1.6 87 -0 -0 1013.8 984.1
21 8.12 ЮЗ 4 н/о н/о +3.5 +1.4 86 -1 -1 1014.0 984.3
22 8.12 Ю 3 н/о н/о +3.0 +0.9 86 -1 -1 1013.5 983.8
23 8.12 ЮЗ 3 н/о н/о +3.2 +0.3 81 -1 -1 1013.1 983.4
00 9.12 ЮЗ 4 н/о н/о +3.4 +0.5 81 -1 -1 1012.1 982.5
01 9.12 Ю 5
{7}
н/о н/о +3.2 -0.1 79 -2 -2 1011.0 981.4
02 9.12 Ю 4
{7}
н/о н/о +2.5 -0.4 81 -2 -2 1009.8 980.1
03 9.12 Ю 3 н/о н/о +2.6 -0.7 79 -1 -1 1009.0 979.4
04 9.12 Ю 4 н/о н/о +2.5 -0.8 79 -2 -2 1008.5 978.9
05 9.12 Ю 4 н/о н/о +2.9 -0.7 77 -2 -2 1007.0 977.5
06 9.12 Ю 5 н/о н/о +3.5 -0.5 75 -1 -1 1006.4 977.0 +2.1
07 9.12 Ю 3
{7}
н/о н/о +3.7 -0.5 74 0 0 1005.3 975.9
08 9.12 Ю 6
{10}
н/о н/о +4.1 -0.3 73 -1 -1 1004.7 975.4
09 9.12 Ю 5 н/о н/о +5.1 +0.1 70 +1 +1 1004.8 975.6
10 9.12 Ю 2
{9}
н/о н/о +5.5 +0.9 72 +3 +3 1005.0 975.8
11 9.12 ЮЗ 2 н/о н/о +6.2 +1.5 72 +4 +4 1005.2 976.1
12 9.12 Ю 3 н/о н/о +7.7 +2.2 68 +5 +5 1003.9 975.0
13 9.12 ЮЗ 2 н/о н/о +8.0 +1.6 64 +6 +6 1003.9 975.0
14 9.12 ЮЗ 3 н/о н/о +8.0 +2.0 66 +6 +6 1004.1 975.2
15 9.12 ЮЗ 3 н/о н/о +7.7 +1.1 63 +5 +5 1004.1 975.2
16 9.12 Ю 2 н/о н/о +7.1 +1.0 65 +5 +5 1004.1 975.1
17 9.12 ЮЗ 2 н/о н/о +7.0 +1.3 67 +5 +5 1004.5 975.5
18 9.12 ЮЗ 3 н/о н/о +6.4 +0.7 67 +4 +4 1004.8 975.7 +8.3
19 9.12 ЮЗ 3 н/о н/о +5.3 +0.9 73 +2 +2 1005.8 976.6
20 9.12 ЮЗ 1 н/о н/о +5.4 +1.0 73 +4 +4 1006.1 976.9
21 9.12 Ю 1 н/о н/о +6.3 +0.8 68 +6 +6 1006.3 977.1
22 9.12 Ю 2 н/о н/о +6.1 +0.6 68 +4 +4 1006.6 977.4
23 9.12 ЮЗ 1 н/о н/о +6.7 -0.3 61 +6 +6 1007.0 977.9
00 10.12 З 4 н/о н/о +7.1 -0.1 60 +4 +4 1007.5 978.4
01 10.12 З 4
{7}
н/о н/о +6.8 +0.3 63 +4 +4 1008.0 978.8
02 10.12 СЗ 3 н/о н/о +4.1 -0.3 73 +1 +1 1009.1 979.6
03 10.12 СЗ 3 н/о н/о +4.0 -0.0 75 0 0 1009.8 980.3
04 10.12 СЗ 2 н/о н/о +4.5 -0.1 72 +2 +2 1009.7 980.3
05 10.12 СЗ 2 н/о н/о +4.2 -0.2 73 +2 +2 1010.3 980.8
06 10.12 СЗ 2 н/о н/о +3.1 -0.4 78 0 0 1011.0 981.4 +2.7
07 10.12 С 4
{8}
н/о н/о +3.2 +0.9 85 -1 -1 1013.0 983.3
08 10.12 СЗ 2 н/о н/о +3.3 +1.7 89 0 0 1013.6 983.9
09 10.12 З 2 н/о н/о +5.1 +1.8 79 +3 +3 1013.9 984.4
10 10.12 З 3 н/о н/о +7.4 +0.4 61 +5 +5 1014.4 985.1
11 10.12 З 4
{7}
н/о н/о +7.7 -2.3 49 +5 +5 1014.1 984.9
12 10.12 З 4 н/о н/о +8.3 -1.2 51 +6 +6 1014.3 985.1 0.2
13 10.12 З 4
{8}
н/о н/о +8.3 -1.5 50 +6 +6 1014.5 985.3
14 10.12 З 3
{8}
н/о н/о +7.2 -1.0 56 +5 +5 1015.5 986.2
15 10.12 З 1 н/о н/о +5.7 -1.0 62 +5 +5 1015.7 986.2
16 10.12 З 2 н/о н/о +4.4 -1.4 66 +2 +2 1016.4 986.8
17 10.12 З 2 н/о н/о +3.7 -2.1 66 +1 +1 1016.4 986.7
18 10.12 СЗ 1 н/о н/о +3.1 -2.0 69 +2 +2 1016.8 987.0 +8.5 0.2
19 10.12 З 4 н/о н/о +3.0 -1.7 71 -1 -1 1017.5 987.7
20 10.12 З 2 н/о н/о +2.5 -2.0 72 -0 -0 1017.3 987.4
21 10.12 З 2 н/о н/о +1.8 -2.2 75 -1 -1 1016.7 986.8
22 10.12 З 2 н/о н/о +1.5 -2.6 74 -2 -2 1017.0 987.0
23 10.12 З 3 н/о н/о +1.9 -2.8 71 -2 -2 1016.7 986.8
00 11.12 З 3 н/о н/о +0.8 -2.8 77 -4 -4 1016.6 986.6
01 11.12 З 2 н/о н/о +1.2 -1.7 81 -2 -2 1017.1 987.1
02 11.12 З 3 н/о н/о +1.4 -1.2 83 -3 -3 1017.2 987.2
03 11.12 З 1 н/о н/о +1.5 -1.4 81 -0 -0 1016.9 986.9
04 11.12 ЮЗ 2 н/о н/о -0.9 -2.3 90 -5 -5 1017.3 987.1
05 11.12 З 2 н/о н/о -0.6 -2.6 86 -4 -4 1017.3 987.1
06 11.12 Ю 2 н/о н/о -0.7 -2.6 87 -4 -4 1017.0 986.8 -0.9
07 11.12 Ю 1 н/о н/о -0.7 -2.7 86 -3 -3 1017.0 986.8
08 11.12 Ю 2 н/о н/о -0.4 -2.3 87 -4 -4 1017.1 986.9
09 11.12 Ю 2 н/о н/о -0.3 -2.2 87 -4 -4 1017.2 987.0
10 11.12 ЮЗ 1 н/о н/о +0.6 -1.9 83 -1 -1 1017.5 987.4
11 11.12 ЮЗ 2 н/о н/о +1.9 -1.5 78 -1 -1 1017.0 987.1
12 11.12 ЮЗ 2 н/о н/о +3.7 -2.3 65 +1 +1 1016.5 986.8
13 11.12 ЮЗ 2 н/о н/о +4.7 -0.9 67 +2 +2 1016.3 986.7
14 11.12 ЮЗ 2 н/о н/о +4.7 -1.3 65 +2 +2 1016.7 987.1
15 11.12 ЮЗ 2 н/о н/о +3.9 -1.5 68 +1 +1 1016.9 987.2
16 11.12 ЮЗ 1 н/о н/о +3.2 -1.4 72 +2 +2 1017.1 987.3
17 11.12 ЮЗ 2 н/о н/о +3.4 -2.3 66 +1 +1 1017.3 987.5
18 11.12 З 3 н/о н/о +4.0 -4.2 55 +1 +1 1017.5 987.8 +5.1
19 11.12 З 4
{7}
н/о н/о +4.1 -5.6 49 0 0 1017.6 987.9
20 11.12 З 3 н/о н/о +3.5 -5.7 51 0 0 1017.8 988.0
21 11.12 З 4 н/о н/о +3.7 -5.8 50 -0 -0 1017.9 988.1
22 11.12 З 2 н/о н/о +2.9 -5.5 54 0 0 1017.8 988.0
23 11.12 З 2 н/о н/о +2.2 -5.2 58 -1 -1 1017.9 988.0
00 12.12 З 2 н/о н/о +2.6 -5.5 55 0 0 1017.9 988.0
01 12.12 З 2 н/о н/о +2.9 -5.5 54 0 0 1017.8 988.0
02 12.12 ЮЗ 1 н/о н/о +2.1 -5.3 58 +1 +1 1018.0 988.1
03 12.12 З 1 н/о н/о +1.9 -4.6 62 +1 +1 1018.1 988.1
04 12.12 СЗ 2 н/о н/о +1.5 -3.8 68 -2 -2 1018.4 988.4
05 12.12 СВ 2 н/о н/о +1.5 -3.8 68 -2 -2 1018.7 988.7
06 12.12 В 1 н/о н/о +0.8 -2.3 80 -1 -1 1019.0 988.9 +0.8
07 12.12 В 1 н/о н/о +0.5 -1.1 89 -2 -2 1019.5 989.3
08 12.12 Ю 1 н/о н/о +0.9 -0.6 90 -1 -1 1019.9 989.8
09 12.12 штиль 0 н/о н/о +1.6 -0.3 87 +1 +1 1020.3 990.2
10 12.12 З 1 н/о н/о +2.7 +0.3 84 +1 +1 1020.2 990.3
11 12.12 СЗ 2 н/о н/о +1.9 +0.3 89 -1 -1 1020.5 990.5
12 12.12 СЗ 3 н/о н/о +2.6 +1.1 90 -2 -2 1020.4 990.4 1
13 12.12 СЗ 4
{9}
н/о н/о +1.6 +0.1 90 -4 -4 1020.9 990.8
14 12.12 СЗ 3
{7}
н/о н/о +1.7 -0.4 86 -3 -3 1021.0 990.9
15 12.12 СЗ 1 н/о н/о +1.3 -0.5 88 -1 -1 1021.1 991.0
16 12.12 С 1 н/о н/о +0.9 -0.6 90 -1 -1 1021.3 991.1
17 12.12 С 3 н/о н/о +0.8 -1.0 88 -4 -4 1021.6 991.4
18 12.12 С 2 н/о н/о +0.5 -0.9 90 -3 -3 1021.9 991.7 +2.7 1
19 12.12 С 1 н/о н/о -0.1 -1.2 92 -2 -2 1022.2 991.9
20 12.12 З 2 н/о н/о -1.0 -2.1 92 -5 -5 1022.3 991.9
21 12.12 СЗ 1 н/о н/о -1.1 -1.9 94 -3 -3 1022.3 991.9
22 12.12 штиль 0 н/о н/о -1.7 -2.4 95 -3 -3 1022.6 992.1
23 12.12 СЗ 1 н/о н/о -1.7 -2.4 95 -4 -4 1022.7 992.2
00 13.12 штиль 0 н/о н/о -1.9 -2.5 96 -3 -3 1022.9 992.4
01 13.12 штиль 0 н/о н/о -1.6 -2.2 96 -3 -3 1022.6 992.1
02 13.12 С 1 н/о н/о -1.4 -2.0 96 -4 -4 1022.7 992.2
03 13.12 С 2 н/о н/о -0.9 -1.5 96 -5 -5 1022.4 992.0
04 13.12 С 1 н/о н/о -1.3 -1.9 96 -4 -4 1022.3 991.9
05 13.12 СЗ 1 н/о н/о -1.2 -1.8 96 -4 -4 1022.1 991.7
06 13.12 С 1 н/о н/о -1.1 -1.7 96 -3 -3 1022.3 991.9 -2.4
07 13.12 С 2 н/о н/о -1.0 -1.7 95 -5 -5 1022.6 992.2
08 13.12 СВ 1 н/о н/о -0.8 -1.6 94 -3 -3 1022.7 992.3
09 13.12 В 1 н/о н/о -0.4 -2.0 89 -3 -3 1022.6 992.3
10 13.12 С 2 н/о н/о +0.1 -1.6 88 -4 -4 1022.3 992.0
11 13.12 СВ 2 н/о н/о +0.2 -1.5 88 -3 -3 1021.5 991.3
12 13.12 В 1 н/о н/о 0.0 -1.7 88 -2 -2 1021.6 991.3
13 13.12 штиль 0 н/о н/о +0.2 -1.9 86 -1 -1 1021.4 991.2
14 13.12 СВ 2 н/о н/о +0.2 -1.7 87 -3 -3 1021.2 991.0
15 13.12 С 3 н/о н/о -0.7 -1.8 92 -6 -6 1021.3 991.0
16 13.12 С 1 н/о н/о -1.3 -2.1 94 -4 -4 1021.5 991.1
17 13.12 СВ 3 н/о н/о -1.8 -2.6 94 -7 -7 1021.6 991.1
18 13.12 СВ 2 н/о н/о -1.9 -2.6 95 -6 -6 1021.8 991.3 +0.5
19 13.12 СВ 2 н/о н/о -1.9 -2.6 95 -6 -6 1021.9 991.4
20 13.12 СВ 2 н/о н/о -2.1 -2.8 95 -6 -6 1022.1 991.6
21 13.12 С 2 н/о н/о -2.2 -2.7 96 -6 -6 1022.3 991.8
22 13.12 СВ 3 н/о н/о -2.3 -2.8 96 -8 -8 1022.6 992.0

 

Местоположение метеостанции Zalaegerszeg (Венгрия): широта 46.87 долгота 16.80 высота над уровнем моря 180 м.

В архиве по умолчанию представлена погода в Zalaegerszeg за последнюю неделю. Архивные данные за месяц целиком и за предыдущие месяцы, начиная с января 2011 года, Вы можете получить, выбрав интересующий диапазон дат из раскрывающегося списка и нажав кнопку "Ввод!".


*Определитесь, кто Вы:
робот инопланетянин человек

Внимание! Время в таблицах - всемирное. Для получения местного времени необходимо прибавить поправку, которая в Zalaegerszeg равна 1 ч.

Смотрите также архив погоды в соседних городах и на ближайших метеорологических станциях:

Погода в Sarmellek (Венгрия) (35 км)
Погода в Szentgotthard (Венгрия) (37 км)
Погода в Szombathely (Венгрия) (46 км)
Погода в Nagykanizsa (Венгрия) (48 км)
Погода в Kleinzicken (Австрия) (51 км)
Погода в Murska Sobota (Словения) (53 км)
Погода в Bad Radkersburg (Австрия) (66 км)
Погода в Bad Tatzmannsdorf (Австрия) (67 км)
Погода в Lutzmannsburg (Австрия) (68 км)
Погода в Bad Gleichenberg (Австрия) (68 км)

Пояснения к столбцам:

Ветер - указаны скорость ветра в м/с - средняя за 10 мин, порывы в срок и между сроками (в фигурных скобках) и направление, откуда дует ветер: С - северный, СВ - северо-восточный, В - восточный, ЮВ - юго-восточный, Ю - южный, ЮЗ - юго-западный, З - западный, СЗ - северо-западный.
Видимость - горизонтальная дальность видимости в метрах или километрах. При видимости от 1 до 10 км при отсутствии осадков обычно наблюдается дымка, при ухудшении видимости до 1 км и менее - туман. В сухую погоду видимость может ухудшаться дымом, пылью или мглою.
Явления - указаны атмосферные явления, наблюдавшиеся в срок или в последний час перед сроком; фигурными скобками обозначены явления, наблюдавшиеся между сроками (за 1-3 часа до срока); квадратными скобками обозначены град или гололедные отложения с указанием их диаметра в мм.
Облачность - указаны через наклонную черту общая и нижняя облачность в баллах и высота нижней границы облаков в метрах; квадратными скобками обозначены формы облаков: Ci - перистые, Cs - перисто-слоистые, Cc - перисто-кучевые, Ac - высококучевые, As - высокослоистые, Sc - слоисто-кучевые, Ns - слоисто-дождевые, Cu - кучевые, Cb - кучево-дождевые. Подробнее классификацию облаков см. в Атласе облаков (PDF).
T - Температура воздуха - температура, измеренная на высоте 2 м над землей.
Td - Температура точки росы - температура, при понижении до которой содержащийся в воздухе водяной пар достигнет насыщения.
f - Относительная влажность воздуха - влажноcть воздуха, измеренная на высоте 2 м над землей.
Te - Эффективная температура - температура, которую ощущает одетый по сезону человек в тени. Характеристика душности погоды. При расчете учитывается влияние влажности воздуха и скорости ветра на теплоощущения человека.
Tes - Эффективная температура на солнце - температура, которую ощущает человек, с поправкой на солнечный нагрев. Характеристика знойности погоды. Зависит от высоты солнца над горизонтом, облачности и скорости ветра. Ночью, в пасмурную погоду, а также при ветре 12 м/с и более поправка равна нулю.
P - Атмосферное давление - приведенное к уровню моря атмосферное давление.
Po - Атмосферное давление - измеренное на уровне метеостанции атмосферное давление.
Tmin - Минимальная температура - минимум температуры воздуха на высоте 2 м над землей.
Tmax - Максимальная температура - максимум температуры воздуха на высоте 2 м над землей.
R - Количество осадков - Количество выпавших осадков за период времени, мм. При наведении курсора мыши на число - период времени, за который выпало указанное количество осадков.
R24 - Количество осадков - Количество выпавших осадков за 24 часа, мм.
S - Снежный покров - Высота снежного покрова, см. При наведении курсора мыши на число - состояние снежного покрова и степень покрытия местности в баллах.